This site uses a module created by best online poker sites.

BSB police report for December 6, 2018

"12/04/2018","00:09","218CR0031065","ATL","ATL","225 N ALASKA","",""
"12/04/2018","00:18","218CR0031066","ALL OTHER","ALL OTHER","2100 CORNELL QUALITY INN","",""
"12/04/2018","00:37","218CR0031067","UNWANTED PERSON","UNWANTED PERSON","************","",""
"12/04/2018","01:08","218CR0031068","SUSPICIOUS ACTIVITY","CRIMINAL CONTEMPT","1900 BLK FLORIDA","ARREST(s) MADE",""
"12/04/2018","01:37","218CR0031069","ALL OTHER","ALL OTHER","501 W GRANITE MUELLER APTS","",""
"12/04/2018","02:20","218CR0031070","SUSPICIOUS ACTIVITY","SUSPICIOUS ACTIVITY","200 BLK W PARK N ALLEY","",""
"12/04/2018","05:05","218CR0031071","WELFARE CHECK","WELFARE CHECK","730 NEVADA","",""
"12/04/2018","05:54","218CR0031072","MEDICAL - EMERGENCY","MEDICAL - EMERGENCY","721 HOBSON #4","",""
"12/04/2018","06:34","218CR0031073","ALARM - BURGLARY","ALARM - BURGLARY","************","",""
"12/04/2018","06:47","218CR0031074","DISTURBANCE","DISTURBANCE","400 BLK S CLARK","",""
"12/04/2018","06:55","218CR0031075","ACCIDENT-MHP","ACCIDENT-MHP","I15 NB 146","",""
"12/04/2018","07:45","218CR0031076","LED BUSINESS","LED BUSINESS","400 S CLARK ST","",""
"12/04/2018","07:56","218CR0031077","WELFARE CHECK","WELFARE CHECK","400 S CLARK ST","",""
"12/04/2018","08:10","218CR0031078","SUSPICIOUS ACTIVITY","SUSPICIOUS ACTIVITY","CASEY ST AND NOYES ST","",""
"12/04/2018","09:04","218CR0031079","MEDICAL - EMERGENCY","MEDICAL - EMERGENCY","4655 HARRISON AVE","",""
"12/04/2018","09:11","218CR0031080","SUSPICIOUS ACTIVITY","SUSPICIOUS ACTIVITY","CLARK ST AND QUARTZ ST","",""
"12/04/2018","09:27","218CR0031081","CIVIL PAPER SERVICE","CIVIL PAPER SERVICE","2820 SILVER BOW","",""
"12/04/2018","09:42","218CR0031082","WELFARE CHECK","WELFARE CHECK","2006 HANCOCK","",""
"12/04/2018","09:57","218CR0031083","ALARM - FIRE","ALARM - FIRE","300 MOUNT HIGHLAND DR","",""
"12/04/2018","10:24","218CR0031084","CIVIL PAPER SERVICE","CIVIL PAPER SERVICE","1614 N MAIN ST","",""
"12/04/2018","10:36","218CR0031085","THEFT","THEFT, ALL OTHERS","712 SAMPSON/AWARE GROUP HOME","",""
"12/04/2018","10:56","218CR0031087","THEFT","THEFT, ALL OTHERS","2941 BUSCH AVE","",""
"12/04/2018","10:56","218CR0031086","LED BUSINESS","LED BUSINESS","SHOOTING RANGE","",""
"12/04/2018","10:58","218CR0031088","JUVENILE MISC","JUVENILE MISC","************","",""
"12/04/2018","11:23","218CR0031089","SUSPICIOUS ACTIVITY","SUSPICIOUS ACTIVITY","405 W GRANITE","",""
"12/04/2018","11:28","218CR0031090","SUSPICIOUS ACTIVITY","SUSPICIOUS ACTIVITY","20 W GALENA","",""
"12/04/2018","11:43","218CR0031091","BUSINESS CHECK","BUSINESS CHECK","58 W PARK ST PARKING GARAGE","",""
"12/04/2018","11:50","218CR0031092","SUSPICIOUS ACTIVITY","SUSPICIOUS ACTIVITY","3001 HARRISON","",""
"12/04/2018","12:03","218CR0031093","BURGLARY","BURGLARY, RESIDENCE","1057 W GOLD ST","",""
"12/04/2018","12:23","218CR0031095","CIVIL PAPER SERVICE","CIVIL PAPER SERVICE","1900 LOWELL","",""
"12/04/2018","13:17","218CR0031096","ATL","ATL","400 S CLARK ST","",""
"12/04/2018","13:18","218CR0031097","FIRE- GAS ODOR","FIRE- GAS ODOR","742 S MAIN","",""
"12/04/2018","13:20","218CR0031098","MEDICAL - EMERGENCY","MEDICAL - EMERGENCY","1019 W SILVER ST","",""
"12/04/2018","13:38","218CR0031099","JUVENILE MISC","JUVENILE MISC","************","",""
"12/04/2018","14:24","218CR0031101","THEFT","THEFT","1301 HARRISON AVE","",""
"12/04/2018","14:27","218CR0031102","VANDALISM/CRIMINAL MISCHIEF","VANDALISM/CRIMINAL MISCHIEF","1003 S MONTANA ST","",""
"12/04/2018","14:30","218CR0031103","ACCIDENT","FAIL TO YIELD THRU TRAFFIC","COBBAN AND LAFAYETTE","",""
"12/04/2018","14:39","218CR0031104","BUSINESS CHECK","BUSINESS CHECK","58 W PARK","",""
"12/04/2018","15:08","218CR0031105","CIVIL PAPER SERVICE","CIVIL PAPER SERVICE","1504 ELM ST","",""
"12/04/2018","15:29","218CR0031106","SUSPICIOUS ACTIVITY","SUSPICIOUS ACTIVITY","800 BLK MAIN ST","",""
"12/04/2018","15:30","218CR0031107","VANDALISM/CRIMINAL MISCHIEF","CRIMINAL MISCHIEF","821 W MERCURY ST","",""
"12/04/2018","15:39","218CR0031108","T/S","T/S","GRANITE AND HAMILTON","",""
"12/04/2018","15:46","218CR0031109","HARASSMENT","HARASSMENT","400 S CLARK ST","",""
"12/04/2018","15:46","218CR0031110","LED BUSINESS","THEFT, ALL OTHERS","155 W QUARTZ","",""
"12/04/2018","15:48","218CR0031111","T/S","T/S","1515 HARRISON AVE","",""
"12/04/2018","15:49","218CR0031112","SUSPICIOUS ACTIVITY","SUSPICIOUS ACTIVITY","700 BLK LEWISHON","",""
"12/04/2018","16:01","218CR0031113","WELFARE CHECK","WELFARE CHECK","125 W GRANITE","",""
"12/04/2018","16:10","218CR0031114","T/S","OPERATING WITHOUT CURRENT REGI","MASSACHUSETTS AND YALE","",""
"12/04/2018","16:13","218CR0031115","ACCIDENT","AGGRAVATED DUI","807 S MAIN","ARREST(s) MADE",""
"12/04/2018","16:21","218CR0031116","FRAUD","FRAUD","3 BEARS ALASKA 3 BEARS DRIVE","",""
"12/04/2018","16:33","218CR0031117","WELFARE CHECK","WELFARE CHECK","12 ONEILL APT B","",""
"12/04/2018","17:00","218CR0031118","T/S","DRIVE WHILE SUSP. OR REVOKED","MAIN ST AND GRANITE ST","",""
"12/04/2018","17:12","218CR0031119","DISTURBANCE","DISTURBANCE","100 W PARK ST","",""
"12/04/2018","17:13","218CR0031120","ASSIST OTHER AGENCY","ASSIST OTHER AGENCY","ELM AND GARFIELD","",""
"12/04/2018","17:17","218CR0031121","THEFT","THEFT, ALL OTHERS","155 W QUARTZ BSB COUNTY JAILK","",""
"12/04/2018","17:40","218CR0031122","T/S","T/S @ MERCURY AND MONTANA","MERCURY AND MONTANA","",""
"12/04/2018","17:50","218CR0031123","SUSPICIOUS ACTIVITY","SUSPICIOUS ACTIVITY","GALENA AND MAIN","",""
"12/04/2018","18:25","218CR0031124","DISTURBANCE","PFMA - MINOR INJ/PHYSICAL CONT","720 HOBSON","",""
"12/04/2018","18:55","218CR0031125","TRAFFIC HAZARD","TRAFFIC HAZARD","27 E GALENA","",""
"12/04/2018","19:20","218CR0031126","ALARM - MEDICAL","ALARM - MEDICAL","************","",""
"12/04/2018","20:10","218CR0031127","DISTURBANCE","DISTURBANCE","1316 KAW AVE","",""
"12/04/2018","20:23","218CR0031128","MEDICAL - EMERGENCY","MEDICAL - EMERGENCY","155 W QUARTZ","",""
"12/04/2018","21:29","218CR0031129","HIT AND RUN","HIT AND RUN, UNATTENDED VEHICL","1115 MARYLAND","",""
"12/04/2018","21:34","218CR0031130","ALARM - BURGLARY","ALARM - BURGLARY","************","",""
"12/04/2018","22:03","218CR0031131","MEDICAL - ASSIST","MEDICAL - ASSIST","************","",""
"12/04/2018","22:57","218CR0031132","PROWLER","PROWLER","106 COTTAGE LOOP","",""
"12/04/2018","23:09","218CR0031133","MEDICAL - EMERGENCY","MEDICAL - EMERGENCY","FARRELL AND ADAMS","",""
"12/04/2018","23:14","218CR0031134","MEDICAL - EMERGENCY","MEDICAL - EMERGENCY","132 W BROADWAY","",""
"12/04/2018","23:20","218CR0031135","SUSPICIOUS ACTIVITY","SUSPICIOUS ACTIVITY","2201 SILVERBOW BLVD","",""
"12/05/2018","00:11","218CR0031136","MEDICAL - EMERGENCY","MEDICAL - EMERGENCY","1809 A STREET","",""
"12/05/2018","00:21","218CR0031137","ALARM - BURGLARY","ALARM - BURGLARY","************","",""
"12/05/2018","00:27","218CR0031138","BUSINESS CHECK","BUSINESS CHECK","2000 DEWEY BLVD DOTTYS CASINO","",""
"12/05/2018","00:28","218CR0031139","MEDICAL - EMERGENCY","MEDICAL - EMERGENCY","2850 KOSSUTH","",""
"12/05/2018","01:29","218CR0031140","THEFT","THEFT, ALL OTHERS","678 S DAKOTA","",""
"12/05/2018","02:25","218CR0031141","BUSINESS CHECK","BUSINESS CHECK","531 S MONTANA TOWN PUMP","",""
"12/05/2018","02:31","218CR0031142","SUSPICIOUS ACTIVITY","SUSPICIOUS ACTIVITY","1324 HARRISON AVE BUS DEPOT","",""
"12/05/2018","03:26","218CR0031143","DISTURBANCE","DISTURBANCE","1324 HARRISON AVE BUS DEPOT","",""
"12/05/2018","04:36","218CR0031144","ASSAULT","PFMA - MINOR INJ/PHYSICAL CONT","507 S MAIN","",""
"12/05/2018","04:44","218CR0031145","ALARM - BURGLARY","ALARM - BURGLARY","************","",""
"12/05/2018","05:01","218CR0031146","CITIZEN AID","CITIZEN AID","1827 OREGON","",""
"12/05/2018","05:08","218CR0031147","MEDICAL - EMERGENCY","MEDICAL - EMERGENCY","1904 SILVERBOW HOMES","",""
"12/05/2018","07:44","218CR0031148","BUSINESS CHECK","BUSINESS CHECK","58 W PARK ST","",""
"12/05/2018","08:01","218CR0031149","T/S","T/S @ ","","",""
"12/05/2018","08:02","218CR0031150","FIRE - OTHER","FIRE - OTHER","1000 BLK GAYLORD","",""
"12/05/2018","08:02","218CR0031151","T/S","DRIVE WHILE SUSP. OR REVOKED","ALABAMA AND DIAMOND","",""
"12/05/2018","08:27","218CR0031152","CIVIL PAPER SERVICE","CIVIL PAPER SERVICE","518 N WYOMING","",""
"12/05/2018","08:31","218CR0031153","SUSPICIOUS ACTIVITY","SUSPICIOUS ACTIVITY","58 W PARK","",""
"12/05/2018","08:36","218CR0031154","JUVENILE MISC","TRUANCY","401 S WYOMING BUTTE HIGH SCHOO","ARREST(s) MADE",""
"12/05/2018","08:42","218CR0031155","JUVENILE MISC","JUVENILE MISC","************","",""
"12/05/2018","08:56","218CR0031156","HARASSMENT","HARASSMENT","742 S MAIN ST","",""
"12/05/2018","09:11","218CR0031157","ALARM - FIRE","ALARM - FIRE","4053 WYNNE","",""
"12/05/2018","09:27","218CR0031158","CIVIL PAPER SERVICE","CIVIL PAPER SERVICE","654 S IDAHO","",""
"12/05/2018","09:42","218CR0031159","ABANDONED VEHICLE- PRIVATE PRO","ABANDONED VEHICLE- PRIVATE PRO","202 N MAIN","",""
"12/05/2018","09:49","218CR0031160","LED BUSINESS","LED BUSINESS","155 W GRANITE","",""
"12/05/2018","09:54","218CR0031161","CITIZEN AID","CITIZEN AID","FRONT AND MONTANA","",""
"12/05/2018","10:03","218CR0031162","FRAUD","ISSUING A BAD CHECK","3703 HARRISON AVE","",""
"12/05/2018","10:15","218CR0031163","DISTURBANCE","DISTURBANCE","1050 S MONTANA","",""
"12/05/2018","10:26","218CR0031164","ACCIDENT","ACCIDENT","901 E FRONT ST","",""
"12/05/2018","10:53","218CR0031165","TRAFFIC HAZARD","TRAFFIC HAZARD","CENTENNIAL AND MONTANA","",""
"12/05/2018","10:55","218CR0031166","ALARM - FIRE","ALARM - FIRE","300 MOUNT HIGHLAND DR","",""
"12/05/2018","11:13","218CR0031167","ASSIST OTHER AGENCY","ASSIST OTHER AGENCY","61 W CENTER","",""
"12/05/2018","11:16","218CR0031168","BUSINESS CHECK","BUSINESS CHECK","58 W PARK ST","",""
"12/05/2018","11:18","218CR0031169","ALARM - BURGLARY","ALARM - BURGLARY","************","",""
"12/05/2018","11:39","218CR0031170","T/S","T/S @ AMHERST AND THOMAS","AMHERST AND THOMAS","",""
"12/05/2018","11:59","218CR0031171","WELFARE CHECK","WELFARE CHECK","1725 STUART AVE","",""
"12/05/2018","12:13","218CR0031172","MEDICAL - EMERGENCY","MEDICAL - EMERGENCY","5270 SADDLE ROCK","",""
"12/05/2018","12:14","218CR0031173","DISTURBANCE","DISTURBANCE","341 INDIAN PAINT BRUSH","",""
"12/05/2018","12:18","218CR0031175","FOUND PROPERTY","FOUND PROPERTY","************","",""
"12/05/2018","12:25","218CR0031176","T/S","T/S @ PARK AND WASHINGTON","PARK AND WASHINGTON","",""
"12/05/2018","12:33","218CR0031177","TRAFFIC HAZARD","TRAFFIC HAZARD","736 N MONTANA","",""
"12/05/2018","12:46","218CR0031178","DETENTION BUSINESS","DETENTION BUSINESS","************","",""
"12/05/2018","13:08","218CR0031179","CIVIL PAPER SERVICE","CIVIL PAPER SERVICE","62 W BROADWAY","",""
"12/05/2018","13:13","218CR0031180","WANTED PERSON","WANTED PERSON","************","",""
"12/05/2018","13:23","218CR0031181","CIVIL PAPER SERVICE","CIVIL PAPER SERVICE","263 W BOVINE","",""
"12/05/2018","13:28","218CR0031182","INFORMATION ONLY","INFORMATION ONLY","1455 SAGE","",""
"12/05/2018","13:28","218CR0031183","T/S","T/S","1000 BLK EXCELSIOR","",""
"12/05/2018","13:29","218CR0031184","MEDICAL - EMERGENCY","MEDICAL - EMERGENCY","1455 SAGE","",""
"12/05/2018","13:47","218CR0031185","MEDICAL - EMERGENCY","MEDICAL - EMERGENCY","3037 BURLINGTON","",""
"12/05/2018","13:58","218CR0031186","CIVIL PAPER SERVICE","CIVIL PAPER SERVICE","675 SLALOM LANE","",""
"12/05/2018","14:31","218CR0031187","MEDICAL - EMERGENCY","MEDICAL - EMERGENCY","2825 FARRAGUT #B104","",""
"12/05/2018","14:35","218CR0031188","MEDICAL - EMERGENCY","MEDICAL - EMERGENCY","2105 SILVER BOW BLVD","",""
"12/05/2018","14:56","218CR0031189","DRUGS","DRUGS","************","",""
"12/05/2018","15:02","218CR0031190","FOUND PROPERTY","FOUND PROPERTY","************","",""
"12/05/2018","15:06","218CR0031191","T/S","T/S @ PLATINUM AND EXCELSIOR","PLATINUM AND EXCELSIOR","",""
"12/05/2018","15:11","218CR0031192","CIVIL STANDBY","CIVIL STANDBY","1901 GAYLORD","",""
"12/05/2018","15:15","218CR0031193","T/S","CRIMINAL CONTEMPT","ELM AND TEXAS","ARREST(s) MADE",""
"12/05/2018","15:17","218CR0031194","MAN WITH A GUN","MAN WITH A GUN","************","",""
"12/05/2018","15:25","218CR0031195","T/S","T/S @ COBBAN ST AND REYNOLDS ST","COBBAN ST AND REYNOLDS ST","",""
"12/05/2018","15:47","218CR0031196","T/S","T/S @ GOLD ST AND MAIN ST","GOLD ST AND MAIN ST","",""
"12/05/2018","15:50","218CR0031197","RESTRAINING ORDER VIOLATION","VIOLATION OF PROTECTION ORDER","2100 MEADOWLARK LANE","",""
"12/05/2018","15:57","218CR0031199","PARKING COMPLAINT","PARKING COMPLAINT","HERMAN GULCH AND BASIN CREEK","",""
"12/05/2018","15:58","218CR0031200","ATL","ATL","2101 HARRISON/DOMINOS PIZZA","",""
"12/05/2018","16:20","218CR0031201","WELFARE CHECK","WELFARE CHECK","3401 HARRISON","",""
"12/05/2018","16:32","218CR0031202","ACCIDENT","ACCIDENT","237 E MERCURY","",""
"12/05/2018","16:44","218CR0031203","DISTURBANCE","DISTURBANCE","155 W GRANITE ST","",""
"12/05/2018","16:49","218CR0031204","ACCIDENT","ACCIDENT","FRONT AND OREGON","",""
"12/05/2018","17:11","218CR0031205","T/S","T/S @ ALUMINUM ST AND MONTANA ST","ALUMINUM ST AND MONTANA ST","",""
"12/05/2018","17:29","218CR0031206","T/S","CRIMINAL CONTEMPT","FIRST AND MARYLAND","ARREST(s) MADE",""
"12/05/2018","18:08","218CR0031207","THEFT","THEFT, SHOPLIFT","3901 HARRISON","ARREST(s) MADE",""
"12/05/2018","18:16","218CR0031208","SUSPICIOUS ACTIVITY","SUSPICIOUS ACTIVITY","1641 GRAND AVE","",""
"12/05/2018","18:19","218CR0031209","ASSIST OTHER AGENCY","ASSIST OTHER AGENCY","1120 W DIAMOND ST","",""
"12/05/2018","18:34","218CR0031210","MEDICAL - EMERGENCY","MEDICAL - EMERGENCY","201 HOBSON #16","",""
"12/05/2018","18:54","218CR0031211","THEFT","THEFT, SHOPLIFT","1619 GRAND AVE","",""
"12/05/2018","19:07","218CR0031212","MEDICAL - EMERGENCY","MEDICAL - EMERGENCY","3601 GAYLORD ST","",""
"12/05/2018","19:15","218CR0031213","ALARM - FIRE","ALARM - FIRE","50 W BROADWAY ST","",""
"12/05/2018","19:19","218CR0031214","FIRE - OTHER","FIRE - OTHER","3400 HILL APT 405","",""
"12/05/2018","19:30","218CR0031215","WELFARE CHECK","WELFARE CHECK","2711 HARRISON AVE","",""
"12/05/2018","19:52","218CR0031216","FIRE - OTHER","FIRE - OTHER","3400 HILL APT 405","",""
"12/05/2018","20:22","218CR0031217","MEDICAL - ASSIST","MEDICAL - ASSIST","************","",""
"12/05/2018","20:41","218CR0031218","MEDICAL - EMERGENCY","MEDICAL - EMERGENCY","201 HOBSON #16","",""
"12/05/2018","21:25","218CR0031219","PARKING COMPLAINT","PARKING COMPLAINT","215 S MAIN","",""
"12/05/2018","21:56","218CR0031220","SUSPICIOUS ACTIVITY","SUSPICIOUS ACTIVITY","3910 HARRISON AVE","",""
"12/05/2018","22:11","218CR0031221","ALARM - BURGLARY","ALARM - BURGLARY","************","",""
"12/05/2018","22:22","218CR0031222","OPEN BUILDING","OPEN BUILDING","1810 MEADOWLARK FISH // GAME O","",""
"12/05/2018","22:24","218CR0031223","MEDICAL - EMERGENCY","MEDICAL - EMERGENCY","3701 ELIZABETH WARREN","",""
"12/05/2018","22:29","218CR0031224","DISTURBANCE","DISTURBANCE","3400 HILL APT 405","",""
"12/05/2018","22:58","218CR0031225","THEFT","THEFT, SHOPLIFT","1000 GRIZZLY TRAIL TOWN PUMP","",""
"12/05/2018","23:21","218CR0031226","UNWANTED PERSON","UNWANTED PERSON","************","",""
"12/05/2018","23:50","218CR0031227","ALARM - BURGLARY","ALARM - BURGLARY","************","",""
"12/06/2018","00:08","218CR0031228","FIREWORKS COMPLAINT","FIREWORKS COMPLAINT","1600 BLK GRAND","",""
"12/06/2018","01:15","218CR0031230","DISTURBANCE","DISTURBANCE","1000 BLK NEVADA W ALLEY","",""
"12/06/2018","01:15","218CR0031229","ALARM - MEDICAL","ALARM - MEDICAL","************","",""
"12/06/2018","01:37","218CR0031231","PROWLER","PROWLER","106 COTTAGE LOOP","",""
"12/06/2018","02:33","218CR0031233","SUSPICIOUS ACTIVITY","POSSESSION OF DANGEROUS DRUGS","3555 PAXSON","ARREST(s) MADE",""
"12/06/2018","03:18","218CR0031234","DISTURBANCE","DISTURBANCE","436 S MAIN TRIP // DRAGGSTED","",""
"12/06/2018","04:16","218CR0031235","MEDICAL - EMERGENCY","MEDICAL - EMERGENCY","910 EVANS #H5","",""
"12/06/2018","07:19","218CR0031236","FIRE- GAS ODOR","FIRE- GAS ODOR","3525 S WARREN","",""
"12/06/2018","07:24","218CR0031237","ALARM - BURGLARY","ALARM - BURGLARY","************","",""
 

BSB police report for December 5, 2018

BSB LAW ENFORCEMENT DEPARTMENT

DAILY MEDIA RELEASE FOR - 12/04/2018 TO 12/04/2018

Printed 12/05/2018-09:32 By 0135SKULE Page 1

The Daily Media Release does not contain Traffic Stop CR#'s, which is the reason for gaps in the number sequence.

Date-Time CR# Incident Location

12/04/2018-00:09 218CR0031065 ATL 225 N ALASKA

BSB1 (NO OFFENSES)

12/04/2018-00:18 218CR0031066 ALL OTHER 2100 CORNELL QUALITY INN

BSB1 (NO OFFENSES)

12/04/2018-00:37 218CR0031067 UNWANTED PERSON ************

BSB1 (NO OFFENSES)

12/04/2018-01:08 218CR0031068 SUSPICIOUS ACTIVITY 1900 BLK FLORIDA

ARREST(s) MADE BSB1 (CRIMINAL CONTEMPT)

12/04/2018-01:37 218CR0031069 ALL OTHER 501 W GRANITE MUELLER APTS

BSB1 (NO OFFENSES)

12/04/2018-02:20 218CR0031070 SUSPICIOUS ACTIVITY 200 BLK W PARK N ALLEY

BSB1 (NO OFFENSES)

12/04/2018-05:05 218CR0031071 WELFARE CHECK 730 NEVADA

BSB1 (NO OFFENSES)

12/04/2018-05:54 218CR0031072 MEDICAL - EMERGENCY 721 HOBSON #4

(NO OFFENSES)

12/04/2018-06:34 218CR0031073 ALARM - BURGLARY ************

BSB1 (NO OFFENSES)

12/04/2018-06:47 218CR0031074 DISTURBANCE 400 BLK S CLARK

BSB1 (NO OFFENSES)

12/04/2018-06:55 218CR0031075 ACCIDENT-MHP I15 NB 146

(NO OFFENSES)

12/04/2018-07:45 218CR0031076 LED BUSINESS 400 S CLARK ST

BSB1 (NO OFFENSES)

12/04/2018-07:56 218CR0031077 WELFARE CHECK 400 S CLARK ST

BSB1 (NO OFFENSES)

12/04/2018-08:10 218CR0031078 SUSPICIOUS ACTIVITY CASEY ST AND NOYES ST

BSB1 (NO OFFENSES)

12/04/2018-09:04 218CR0031079 MEDICAL - EMERGENCY 4655 HARRISON AVE

BSB1 (NO OFFENSES)

12/04/2018-09:11 218CR0031080 SUSPICIOUS ACTIVITY CLARK ST AND QUARTZ ST

BSB1 (NO OFFENSES)

12/04/2018-09:27 218CR0031081 CIVIL PAPER SERVICE 2820 SILVER BOW

BSB1 (NO OFFENSES)

12/04/2018-09:42 218CR0031082 WELFARE CHECK 2006 HANCOCK

BSB1 (NO OFFENSES)

12/04/2018-09:57 218CR0031083 ALARM - FIRE 300 MOUNT HIGHLAND DR

(NO OFFENSES)

12/04/2018-10:24 218CR0031084 CIVIL PAPER SERVICE 1614 N MAIN ST

BSB1 (NO OFFENSES)

12/04/2018-10:36 218CR0031085 THEFT 712 SAMPSON/AWARE GROUP HOME

BSB1 (THEFT, ALL OTHERS)

12/04/2018-10:56 218CR0031087 THEFT 2941 BUSCH AVE

BSB1 (THEFT, ALL OTHERS)

12/04/2018-10:56 218CR0031086 LED BUSINESS SHOOTING RANGE

BSB1 (NO OFFENSES)

12/04/2018-10:58 218CR0031088 JUVENILE MISC ************

BSB1 (NO OFFENSES)

12/04/2018-11:23 218CR0031089 SUSPICIOUS ACTIVITY 405 W GRANITE

BSB1 (NO OFFENSES)

12/04/2018-11:28 218CR0031090 SUSPICIOUS ACTIVITY 20 W GALENA

BSB1 (NO OFFENSES)

12/04/2018-11:43 218CR0031091 BUSINESS CHECK 58 W PARK ST PARKING GARAGE

BSB1 (NO OFFENSES)

12/04/2018-11:50 218CR0031092 SUSPICIOUS ACTIVITY 3001 HARRISON

BSB1 (NO OFFENSES)

12/04/2018-12:03 218CR0031093 BURGLARY 1057 W GOLD ST

BSB3 (BURGLARY, RESIDENCE)

12/04/2018-12:23 218CR0031095 CIVIL PAPER SERVICE 1900 LOWELL

BSB1 (NO OFFENSES)

12/04/2018-13:17 218CR0031096 ATL 400 S CLARK ST

BSB1 (NO OFFENSES)

12/04/2018-13:18 218CR0031097 FIRE- GAS ODOR 742 S MAIN

(NO OFFENSES)

12/04/2018-13:20 218CR0031098 MEDICAL - EMERGENCY 1019 W SILVER ST

(NO OFFENSES)

12/04/2018-13:38 218CR0031099 JUVENILE MISC ************

BSB1 (NO OFFENSES)

12/04/2018-14:24 218CR0031101 THEFT 1301 HARRISON AVE

BSB1 (NO OFFENSES)

12/04/2018-14:27 218CR0031102 VANDALISM/CRIMINAL MISCHIEF 1003 S MONTANA ST

BSB1 (NO OFFENSES)

12/04/2018-14:30 218CR0031103 ACCIDENT COBBAN AND LAFAYETTE

BSB1 (FAIL TO YIELD THRU TRAFFIC)

12/04/2018-14:39 218CR0031104 BUSINESS CHECK 58 W PARK

BSB1 (NO OFFENSES)

12/04/2018-15:08 218CR0031105 CIVIL PAPER SERVICE 1504 ELM ST

BSB1 (NO OFFENSES)

12/04/2018-15:29 218CR0031106 SUSPICIOUS ACTIVITY 800 BLK MAIN ST

BSB1 (NO OFFENSES)

12/04/2018-15:30 218CR0031107 VANDALISM/CRIMINAL MISCHIEF 821 W MERCURY ST

BSB1 (NO OFFENSES)

12/04/2018-15:46 218CR0031109 HARASSMENT 400 S CLARK ST

BSB1 (NO OFFENSES)

12/04/2018-15:46 218CR0031110 LED BUSINESS 155 W QUARTZ

BSB1 (THEFT, ALL OTHERS)

12/04/2018-15:49 218CR0031112 SUSPICIOUS ACTIVITY

BSB1 (NO OFFENSES)

12/04/2018-16:01 218CR0031113 WELFARE CHECK 125 W GRANITE

BSB3 (NO OFFENSES)

12/04/2018-16:10 218CR0031114 T/S MASSACHUSETTS AND YALE

BSB1 (OPERATING WITHOUT CURRENT REGI)

12/04/2018-16:13 218CR0031115 ACCIDENT 807 S MAIN

ARREST(s) MADE BSB1 (AGGRAVATED DUI)

12/04/2018-16:21 218CR0031116 FRAUD 3 BEARS ALASKA 3 BEARS DRIVE

BSB1 (NO OFFENSES)

12/04/2018-16:33 218CR0031117 WELFARE CHECK 12 ONEILL APT B

BSB1 (NO OFFENSES)

12/04/2018-17:00 218CR0031118 T/S MAIN ST AND GRANITE ST

BSB1 (DRIVE WHILE SUSP. OR REVOKED)

12/04/2018-17:12 218CR0031119 DISTURBANCE 100 W PARK ST

BSB1 (NO OFFENSES)

12/04/2018-17:13 218CR0031120 ASSIST OTHER AGENCY ELM AND GARFIELD

BSB1 (NO OFFENSES)

12/04/2018-17:17 218CR0031121 THEFT 155 W QUARTZ BSB COUNTY JAILK

BSB1 (THEFT, ALL OTHERS)

12/04/2018-17:50 218CR0031123 SUSPICIOUS ACTIVITY GALENA AND MAIN

BSB1 (NO OFFENSES)

12/04/2018-18:25 218CR0031124 DISTURBANCE 720 HOBSON

BSB1 (PFMA - MINOR INJ/PHYSICAL CONT)

12/04/2018-18:55 218CR0031125 TRAFFIC HAZARD 27 E GALENA

BSB1 (NO OFFENSES)

12/04/2018-19:20 218CR0031126 ALARM - MEDICAL ************

(NO OFFENSES)

12/04/2018-20:10 218CR0031127 DISTURBANCE 1316 KAW AVE

BSB1 (NO OFFENSES)

12/04/2018-20:23 218CR0031128 MEDICAL - EMERGENCY 155 W QUARTZ

BSB1 (NO OFFENSES)

12/04/2018-21:29 218CR0031129 HIT AND RUN 1115 MARYLAND

BSB1 (HIT AND RUN, UNATTENDED VEHICL)

12/04/2018-21:34 218CR0031130 ALARM - BURGLARY ************

BSB1 (NO OFFENSES)

12/04/2018-22:03 218CR0031131 MEDICAL - ASSIST ************

(NO OFFENSES)

12/04/2018-22:57 218CR0031132 PROWLER 106 COTTAGE LOOP

BSB1 (NO OFFENSES)

12/04/2018-23:09 218CR0031133 MEDICAL - EMERGENCY FARRELL AND ADAMS

BSB1 (NO OFFENSES)

12/04/2018-23:14 218CR0031134 MEDICAL - EMERGENCY 132 W BROADWAY

(NO OFFENSES)

12/04/2018-23:20 218CR0031135 SUSPICIOUS ACTIVITY 2201 SILVERBOW BLVD

BSB1 (NO OFFENSES)

BSB police report on December 4, 2018

"12/03/2018","00:58","218CR0030985","BUSINESS CHECK","BUSINESS CHECK","2711 HARRISON AVE","",""
"12/03/2018","01:09","218CR0030986","DISTURBANCE","DISTURBANCE","652 COLORADO","",""
"12/03/2018","02:13","218CR0030987","SUSPICIOUS ACTIVITY","SUSPICIOUS ACTIVITY","BROADWAY ST AND MAIN ST","",""
"12/03/2018","02:15","218CR0030988","SUSPICIOUS ACTIVITY","AGGRAVATED DUI","3501 AUGUSTA AVE","ARREST(s) MADE",""
"12/03/2018","02:58","218CR0030989","SUSPICIOUS ACTIVITY","BUY/POSSESS STOLEN PROPERTY","2340 CORNELL","ARREST(s) MADE",""
"12/03/2018","03:45","218CR0030990","SUSPICIOUS ACTIVITY","SUSPICIOUS ACTIVITY","1915 DEWEY","",""
"12/03/2018","06:57","218CR0030991","BUSINESS CHECK","BUSINESS CHECK","58 W PARK ST PARKING GARAGE","",""
"12/03/2018","07:11","218CR0030992","ALARM - BURGLARY","ALARM - BURGLARY","************","",""
"12/03/2018","07:29","218CR0030993","SUSPICIOUS ACTIVITY","CRIMINAL TRESPASS TO PROPERTY","3555 PAXSON","",""
"12/03/2018","07:43","218CR0030994","FIRE- GAS ODOR","FIRE- GAS ODOR","812 SILVER BOW HOMES","",""
"12/03/2018","07:44","218CR0030995","TRAFFIC","TRAFFIC","HOLMES AND ROWE","",""
"12/03/2018","08:01","218CR0030996","T/S","T/S","COPPER KING INN N LOT","",""
"12/03/2018","08:02","218CR0030997","BUSINESS CHECK","BUSINESS CHECK","58 W PARK","",""
"12/03/2018","08:08","218CR0030998","THEFT","THEFT","2500 MASSACHUSETTS AVE","",""
"12/03/2018","08:10","218CR0030999","CIVIL PAPER SERVICE","CIVIL PAPER SERVICE","1310 GRIZZLY TAIL","",""
"12/03/2018","08:13","218CR0031000","CIVIL PAPER SERVICE","CIVIL PAPER SERVICE","1228 RACOON WAY","",""
"12/03/2018","08:17","218CR0031001","VEHICLE INSPECTION","VEHICLE INSPECTION","1228 RACOON WAY","",""
"12/03/2018","08:34","218CR0031002","DRUGS","POSSESSION OF DANGEROUS DRUGS","2600 GRAND AVE","ARREST(s) MADE",""
"12/03/2018","08:39","218CR0031003","MEDICAL - EMERGENCY","MEDICAL - EMERGENCY","1139 W STEELE","",""
"12/03/2018","09:08","218CR0031004","HIT AND RUN","HIT AND RUN","1941 SAMPSON","",""
"12/03/2018","09:12","218CR0031005","DRUGS","DRUGS","************","",""
"12/03/2018","09:24","218CR0031006","CIVIL PAPER SERVICE","CIVIL PAPER SERVICE","1939 PHILLIPS AVE","",""
"12/03/2018","09:31","218CR0031007","ACCIDENT-MHP","ACCIDENT-MHP","PASSMORE CANYON/CONTINENTAL","",""
"12/03/2018","09:32","218CR0031008","CIVIL PAPER SERVICE","CIVIL PAPER SERVICE","931 1/2 S UTAH","",""
"12/03/2018","09:38","218CR0031009","ABANDONED VEHICLE (MHP)","ABANDONED VEHICLE (MHP)","I90 MM 233 EB","",""
"12/03/2018","09:41","218CR0031010","CIVIL PAPER SERVICE","CIVIL PAPER SERVICE","507 1/2 N WYOMING","",""
"12/03/2018","09:44","218CR0031011","DETENTION BUSINESS","DETENTION BUSINESS","************","",""
"12/03/2018","09:46","218CR0031013","WANTED PERSON","WANTED PERSON","************","",""
"12/03/2018","09:46","218CR0031012","CIVIL PAPER SERVICE","CIVIL PAPER SERVICE","518 N WYOMING","",""
"12/03/2018","09:54","218CR0031014","MEDICAL - EMERGENCY","MEDICAL - EMERGENCY","910 EVANS APT H5","",""
"12/03/2018","09:55","218CR0031015","CIVIL PAPER SERVICE","CIVIL PAPER SERVICE","126 N IDAHO","",""
"12/03/2018","10:08","218CR0031016","CIVIL PAPER SERVICE","CIVIL PAPER SERVICE","213 S WASHINGTON","",""
"12/03/2018","10:16","218CR0031017","CIVIL PAPER SERVICE","CIVIL PAPER SERVICE","654 S IDAHO","",""
"12/03/2018","10:22","218CR0031018","T/S","OPERATING WITHOUT CURRENT REGI","GRAND AVE AND GARFIELD ST","",""
"12/03/2018","10:27","218CR0031019","MEDICAL - EMERGENCY","MEDICAL - EMERGENCY","DAKOTA AND PARK","",""
"12/03/2018","10:28","218CR0031020","CIVIL PAPER SERVICE","CIVIL PAPER SERVICE","838 ZARELDA","",""
"12/03/2018","10:30","218CR0031021","DETENTION BUSINESS","DETENTION BUSINESS","************","",""
"12/03/2018","11:05","218CR0031022","STOLEN VEHICLE","STOLEN VEHICLE","2820 SILVER BOW","",""
"12/03/2018","11:10","218CR0031024","WELFARE CHECK","WELFARE CHECK","2210 HARVARD AVE","",""
"12/03/2018","11:12","218CR0031025","MEDICAL - EMERGENCY","MEDICAL - EMERGENCY","BROADWAY AND MAIN","",""
"12/03/2018","11:15","218CR0031026","INFORMATION ONLY","INFORMATION ONLY","2721 WALNUT ST","",""
"12/03/2018","11:25","218CR0031027","MEDICAL - EMERGENCY","MEDICAL - EMERGENCY","EVANS ST AND LEXINGTON AVE","",""
"12/03/2018","11:36","218CR0031028","T/S","T/S","FARRAGUT AVE AND ARGYLE ST","",""
"12/03/2018","12:04","218CR0031029","THEFT","THEFT","1000 S EXCELSIOR AVE","",""
"12/03/2018","12:07","218CR0031030","ATL","ATL","ARIZONA AND MERCURY","",""
"12/03/2018","12:18","218CR0031031","HARASSMENT","HARASSMENT","225 ALASKA ST","",""
"12/03/2018","12:30","218CR0031032","RESTRAINING ORDER VIOLATION","RESTRAINING ORDER VIOLATION","************","",""
"12/03/2018","12:36","218CR0031033","PRIVACY IN COMMUNICATIONS","PRIVACY IN COMMUNICATIONS","************","",""
"12/03/2018","12:43","218CR0031034","INFORMATION ONLY","INFORMATION ONLY","1050 S MONTANA ST","",""
"12/03/2018","12:45","218CR0031035","T/S","OPERATING WITHOUT CURRENT REGI","PLATINUM AND NEVADA","",""
"12/03/2018","12:51","218CR0031036","ASSAULT","ASSAULT, SIMPLE","55 BASIN CREEK RD","ARREST(s) MADE",""
"12/03/2018","12:57","218CR0031037","THEFT","THEFT","3544 HARRISON UNIVERSAL ATHLET","",""
"12/03/2018","13:05","218CR0031038","T/S","NO LIABILITY INSURANCE IN EFF.","FARRAGUT AND NETTIE","",""
"12/03/2018","13:16","218CR0031039","THEFT","THEFT","505 ORPHIN GIRL","",""
"12/03/2018","14:19","218CR0031040","MEDICAL - EMERGENCY","MEDICAL - EMERGENCY","201 HOBSON #36","",""
"12/03/2018","14:24","218CR0031041","SUSPICIOUS ACTIVITY","SUSPICIOUS ACTIVITY","WARREN AND JOY LANE","",""
"12/03/2018","14:33","218CR0031042","T/S","T/S @ HARRISON AND 4 MILE RD","HARRISON AND 4 MILE RD","",""
"12/03/2018","14:41","218CR0031043","ASSIST OTHER AGENCY","ASSIST OTHER AGENCY","","",""
"12/03/2018","15:05","218CR0031044","FIRE - VEHICLE","FIRE - VEHICLE","520 HOLMES","",""
"12/03/2018","16:00","218CR0031045","ATL","ATL","3901 HARRISON","",""
"12/03/2018","16:03","218CR0031046","ASSIST OTHER AGENCY","ASSIST OTHER AGENCY","1021 1/2 E FRONT","",""
"12/03/2018","16:26","218CR0031047","BUSINESS CHECK","BUSINESS CHECK","1370 HARRISON","",""
"12/03/2018","16:36","218CR0031048","T/S","T/S","OLYMPIA ST AND HARRISON AVE","",""
"12/03/2018","16:48","218CR0031049","ALARM - FIRE","ALARM - FIRE","840 S MONTANA","",""
"12/03/2018","16:58","218CR0031050","THEFT","POSSESS DRUG PARAPHERNALIA","1717 WALL","ARREST(s) MADE",""
"12/03/2018","17:02","218CR0031051","ACCIDENT","CRIMINAL CONTEMPT","HOLLAND AND MONTANA","ARREST(s) MADE",""
"12/03/2018","17:43","218CR0031052","ALL OTHER","ALL OTHER","2409 PINE ST","",""
"12/03/2018","19:42","218CR0031053","DISTURBANCE","DISTURBANCE","210 NEVERSWEAT","",""
"12/03/2018","19:56","218CR0031054","RESTRAINING ORDER VIOLATION","RESTRAINING ORDER VIOLATION","************","",""
"12/03/2018","20:31","218CR0031055","RESTRAINING ORDER VIOLATION","VIOLATION OF PROTECTION ORDER","225 N ALASKA","ARREST(s) MADE",""
"12/03/2018","20:45","218CR0031056","DISTURBANCE","PFMA - MINOR INJ/PHYSICAL CONT","1116 N NEVADA","ARREST(s) MADE",""
"12/03/2018","22:15","218CR0031057","DISTURBANCE","DISTURBANCE","16 W GALENA #I","",""
"12/03/2018","22:24","218CR0031058","WELFARE CHECK","WELFARE CHECK","420 W ALUMINUM","",""
"12/03/2018","22:37","218CR0031059","SEXUAL ASSAULT","SEXUAL ASSAULT","************","",""
"12/03/2018","22:41","218CR0031061","UNWANTED PERSON","DRIVE WHILE SUSP. OR REVOKED","2711 HARRISON AVE","",""
"12/03/2018","22:42","218CR0031060","BURGLARY","CRIMINAL TRESPASS TO PROPERTY","2401 AMHERST","",""
"12/03/2018","23:01","218CR0031062","DRUGS","DRUGS","************","",""
"12/03/2018","23:17","218CR0031063","ALL OTHER","ALL OTHER","1943 PHILLIPS AVE","",""
"12/03/2018","23:21","218CR0031064","SUSPICIOUS ACTIVITY","SUSPICIOUS ACTIVITY","620 ILLINOIS","",""
"12/04/2018","00:09","218CR0031065","ATL","ATL","225 N ALASKA","",""
"12/04/2018","00:18","218CR0031066","ALL OTHER","ALL OTHER","2100 CORNELL QUALITY INN","",""
"12/04/2018","00:37","218CR0031067","UNWANTED PERSON","UNWANTED PERSON","************","",""
"12/04/2018","01:08","218CR0031068","SUSPICIOUS ACTIVITY","CRIMINAL CONTEMPT","1900 BLK FLORIDA","ARREST(s) MADE",""
"12/04/2018","01:37","218CR0031069","ALL OTHER","ALL OTHER","501 W GRANITE MUELLER APTS","",""
"12/04/2018","02:20","218CR0031070","SUSPICIOUS ACTIVITY","SUSPICIOUS ACTIVITY","200 BLK W PARK N ALLEY","",""
"12/04/2018","05:05","218CR0031071","WELFARE CHECK","WELFARE CHECK","730 NEVADA","",""
"12/04/2018","05:54","218CR0031072","MEDICAL - EMERGENCY","MEDICAL - EMERGENCY","721 HOBSON #4","",""
"12/04/2018","06:34","218CR0031073","ALARM - BURGLARY","ALARM - BURGLARY","************","",""
"12/04/2018","06:47","218CR0031074","DISTURBANCE","DISTURBANCE","400 BLK S CLARK","",""
"12/04/2018","06:55","218CR0031075","ACCIDENT-MHP","ACCIDENT-MHP","I15 NB 146","",""
 

BSB police report for December 3, 2018

"11/30/2018","00:02","218CR0030725","UNKNOWN PROBLEM","UNKNOWN PROBLEM","832 CALEDONIA","",""
"11/30/2018","00:06","218CR0030726","WELFARE CHECK","WELFARE CHECK","2500 MASSACHUSETTS AVE","",""
"11/30/2018","00:12","218CR0030727","WANTED PERSON","CRIMINAL CONTEMPT","2305 CONTINENTAL DR TOWN PUMP","ARREST(s) MADE",""
"11/30/2018","00:19","218CR0030728","ASSAULT","ASSAULT, SIMPLE","207 W PARK #14","ARREST(s) MADE",""
"11/30/2018","00:29","218CR0030729","SUSPICIOUS ACTIVITY","SUSPICIOUS ACTIVITY","GRAND AND MONROE","",""
"11/30/2018","00:51","218CR0030730","LED BUSINESS","LED BUSINESS","524 EDISON ST","",""
"11/30/2018","00:58","218CR0030731","MEDICAL - EMERGENCY","MEDICAL - EMERGENCY","155 W QUARTZ BSB DETENTION CEN","",""
"11/30/2018","01:40","218CR0030732","SUSPICIOUS ACTIVITY","SUSPICIOUS ACTIVITY","KMART PARKING LOT","",""
"11/30/2018","01:46","218CR0030733","SUSPICIOUS ACTIVITY","SUSPICIOUS ACTIVITY","1760 HARRISON SOUTHWEST MT FCU","",""
"11/30/2018","01:52","218CR0030734","T/S","NO LIABILITY INSURANCE IN EFF.","UTAH AND FIRST","",""
"11/30/2018","02:06","218CR0030735","BUSINESS CHECK","BUSINESS CHECK","1000 GRIZZLY TR TOWN PUMP","",""
"11/30/2018","02:08","218CR0030736","CRIMINAL TRESPASS","DUI DRUGS OR ALCOHOL","134 OROFINO GULCH RD","ARREST(s) MADE",""
"11/30/2018","02:10","218CR0030737","BUSINESS CHECK","BUSINESS CHECK","FLYING J 122000 BROWNS GLCH RD","",""
"11/30/2018","02:25","218CR0030738","SUSPICIOUS ACTIVITY","SUSPICIOUS ACTIVITY","HOLMES AVE AND WESTERN BLVD","",""
"11/30/2018","02:45","218CR0030739","T/S","AGGRAVATED DUI","ARGYLE AND FARRAGUT ST","ARREST(s) MADE",""
"11/30/2018","02:48","218CR0030740","SUSPICIOUS ACTIVITY","SUSPICIOUS ACTIVITY","50 W BROADWAY ST","",""
"11/30/2018","03:04","218CR0030741","WANTED PERSON","CRIMINAL CONTEMPT","531 S MONTANA","ARREST(s) MADE",""
"11/30/2018","03:29","218CR0030742","T/S","T/S","1700 BLK HOBSON","",""
"11/30/2018","04:11","218CR0030743","MEDICAL - EMERGENCY","MEDICAL - EMERGENCY","1243 W PORPHYRY ST","",""
"11/30/2018","05:19","218CR0030744","THEFT","THEFT","3901 HARRISON AVE","",""
"11/30/2018","05:34","218CR0030746","TRAFFIC","TRAFFIC","EXCELSIOR & HORNET","",""
"11/30/2018","06:24","218CR0030747","SUSPICIOUS ACTIVITY","SUSPICIOUS ACTIVITY","GOLD AND MONTANA","",""
"11/30/2018","07:47","218CR0030748","MEDICAL - EMERGENCY","MEDICAL - EMERGENCY","1224 W ALUMINUM","",""
"11/30/2018","08:24","218CR0030749","BUSINESS CHECK","BUSINESS CHECK","58 W PARK","",""
"11/30/2018","08:43","218CR0030750","MEDICAL - EMERGENCY","MEDICAL - EMERGENCY","1305 STUART","",""
"11/30/2018","08:56","218CR0030751","LED BUSINESS","LED BUSINESS","2600 GRAND AVE","",""
"11/30/2018","09:15","218CR0030752","MEDICAL - EMERGENCY","MEDICAL - EMERGENCY","3766 HARRISON AVE","",""
"11/30/2018","09:24","218CR0030753","CIVIL PAPER SERVICE","CIVIL PAPER SERVICE","405 W GRANITE","",""
"11/30/2018","09:35","218CR0030754","ALL OTHER","ALL OTHER","3883 HARRISON AVE","",""
"11/30/2018","09:36","218CR0030755","TRAFFIC HAZARD","TRAFFIC HAZARD","500 BLK W GALENA","",""
"11/30/2018","09:37","218CR0030756","CIVIL PAPER SERVICE","CIVIL PAPER SERVICE","721 HOBSON #3","",""
"11/30/2018","09:44","218CR0030757","CIVIL PAPER SERVICE","CIVIL PAPER SERVICE","840 W SILVER","",""
"11/30/2018","09:48","218CR0030758","ATL","ATL","IRON AND INTERSTATE","",""
"11/30/2018","09:51","218CR0030759","T/S","T/S","PARK AND MONTANA","",""
"11/30/2018","09:59","218CR0030760","CIVIL PAPER SERVICE","CIVIL PAPER SERVICE","654 S IDAHO","",""
"11/30/2018","10:06","218CR0030761","CIVIL PAPER SERVICE","CIVIL PAPER SERVICE","405 W GRANITE","",""
"11/30/2018","10:10","218CR0030762","CIVIL PAPER SERVICE","CIVIL PAPER SERVICE","205 W GRANITE # 405","",""
"11/30/2018","10:14","218CR0030763","CIVIL PAPER SERVICE","CIVIL PAPER SERVICE","518 N WYOMING","",""
"11/30/2018","10:20","218CR0030764","STOLEN VEHICLE","MOTOR VEHICLE THEFT","115 RAMSEY","",""
"11/30/2018","10:21","218CR0030765","CIVIL PAPER SERVICE","CIVIL PAPER SERVICE","1105 SILVER BOW HOMES","",""
"11/30/2018","10:28","218CR0030766","CIVIL PAPER SERVICE","CIVIL PAPER SERVICE","931 1/2 S UTAH","",""
"11/30/2018","10:32","218CR0030767","CIVIL PAPER SERVICE","CIVIL PAPER SERVICE","1007 OREGON","",""
"11/30/2018","10:36","218CR0030768","FRAUD","FRAUD","2325 HARRISON AVE","",""
"11/30/2018","10:47","218CR0030769","LED BUSINESS","LED BUSINESS","155 W GRANITE","",""
"11/30/2018","11:33","218CR0030770","ATL","ATL","","",""
"11/30/2018","11:44","218CR0030771","THEFT","THEFT OF VEHICLE PARTS/ACCESSO","103 N PARKMONT ST","",""
"11/30/2018","12:45","218CR0030773","THEFT","THEFT FROM MOTOR VEHICLE","3500 HARRISON AVE","",""
"11/30/2018","12:57","218CR0030775","DETENTION BUSINESS","DETENTION BUSINESS","************","",""
"11/30/2018","13:20","218CR0030776","T/S","T/S","225 N ALASKA","",""
"11/30/2018","13:22","218CR0030777","ABANDONED VEHICLE- PRIVATE PRO","ABANDONED VEHICLE- PRIVATE PRO","1301 HARRISON STOKES MARKET","",""
"11/30/2018","13:23","218CR0030778","VANDALISM/CRIMINAL MISCHIEF","DAMAGE TO RENTAL PROPERTY","2955 TEAL ST","",""
"11/30/2018","13:37","218CR0030779","SUSPICIOUS ACTIVITY","SUSPICIOUS ACTIVITY","608 S WASHINGTON","",""
"11/30/2018","14:05","218CR0030780","TRAFFIC HAZARD","TRAFFIC HAZARD","IRON ST AND WASHINGTON","",""
"11/30/2018","14:15","218CR0030781","ASSIST OTHER AGENCY","ASSIST OTHER AGENCY","1022 A MARYLAND","",""
"11/30/2018","14:30","218CR0030782","T/S","NO LIABILITY INSURANCE IN EFF.","HARRISON AND DUNDEE","",""
"11/30/2018","14:38","218CR0030783","MEDICAL - ASSIST","MEDICAL - ASSIST","************","",""
"11/30/2018","14:43","218CR0030784","HARASSMENT","HARASSMENT","413 W BOARDMAN","",""
"11/30/2018","14:57","218CR0030785","T/S","T/S","HOWARD ST AND GRAND AVE","",""
"11/30/2018","15:09","218CR0030786","MEDICAL - EMERGENCY","MEDICAL - EMERGENCY","MONTANA TECH 1300 W PARK","",""
"11/30/2018","15:14","218CR0030787","T/S","FAILURE TO STOP FOR SCHOOL BUS","ELM AND TEXAS","",""
"11/30/2018","15:18","218CR0030788","ACCIDENT","CARELESS DRIVING","SECOND AND UTAH","",""
"11/30/2018","15:40","218CR0030789","THEFT","THEFT","","",""
"11/30/2018","15:51","218CR0030790","THEFT","THEFT OF VEHICLE PARTS/ACCESSO","1730 LONGFELLOW #10","",""
"11/30/2018","15:56","218CR0030792","CITIZEN AID","CITIZEN AID","DEWEY BLVD AND HARRISON AVE","",""
"11/30/2018","15:56","218CR0030791","T/S","T/S","","",""
"11/30/2018","16:24","218CR0030793","INFORMATION ONLY","INFORMATION ONLY","155 W QUARTZ BSB DETENTION CTR","",""
"11/30/2018","16:25","218CR0030794","VEHICLE INSPECTION","VEHICLE INSPECTION","2210 OTTAWA","",""
"11/30/2018","16:56","218CR0030796","THEFT","THEFT, SHOPLIFT","3901 HARRISON","",""
"11/30/2018","17:03","218CR0030797","T/S","SPEEDING","OREGON AVE AND A ST","",""
"11/30/2018","17:07","218CR0030798","CIVIL PAPER SERVICE","CIVIL PAPER SERVICE","155 W QUARTZ","",""
"11/30/2018","17:15","218CR0030799","T/S","SPEEDING","OREGON AND MAJORS","",""
"11/30/2018","17:16","218CR0030800","ALARM - FIRE","ALARM - FIRE","1919 THORNTON AVE","",""
"11/30/2018","17:24","218CR0030801","ASSAULT","ASSAULT","************","",""
"11/30/2018","17:31","218CR0030802","ALARM - BURGLARY","ALARM - BURGLARY","************","",""
"11/30/2018","17:43","218CR0030803","T/S","T/S","PLATINUM AND DAKOTA","",""
"11/30/2018","17:44","218CR0030804","LOST OR STOLEN PROPERTY","LOST OR STOLEN PROPERTY","ROCKER TOWN PUMP 1000 GRIZZLEY","",""
"11/30/2018","17:45","218CR0030805","ALL OTHER","ALL OTHER","1324 HARRISON","",""
"11/30/2018","17:59","218CR0030806","UNKNOWN PROBLEM","UNKNOWN PROBLEM","205 E PACIFIC","",""
"11/30/2018","18:33","218CR0030807","T/S","CRIMINAL CONTEMPT","DEWEY AND WYNNE","ARREST(s) MADE",""
"11/30/2018","19:16","218CR0030808","T/S","T/S","QUARTZ AND MAIN","",""
"11/30/2018","19:23","218CR0030809","SUSPICIOUS ACTIVITY","SUSPICIOUS ACTIVITY","1032 DELAWARE","",""
"11/30/2018","19:23","218CR0030810","LOST OR STOLEN PROPERTY","THEFT LOST OR MISLAID PROPERTY","3901 HARRISON AVE","",""
"11/30/2018","19:56","218CR0030811","T/S","DRIVE WHILE SUSP. OR REVOKED","KAW AND GEORGE","",""
"11/30/2018","20:12","218CR0030812","T/S","OPERATING WITHOUT CURRENT REGI","2ND AND DAKOTA","",""
"11/30/2018","20:16","218CR0030813","CITIZEN AID","CITIZEN AID","1302 E SECOND SCOOP BAR","",""
"11/30/2018","20:26","218CR0030815","ATL","ATL","GAYLORD ST AND SECOND ST","",""
"11/30/2018","20:26","218CR0030814","T/S","T/S","MERCURY AND MONTANA","",""
"11/30/2018","20:40","218CR0030816","LOST OR STOLEN PROPERTY","LOST OR STOLEN PROPERTY","630 W IRON","",""
"11/30/2018","20:55","218CR0030817","T/S","NO LIABILITY INSURANCE IN EFF.","PLATINUM AND MAIN","",""
"11/30/2018","21:05","218CR0030818","WELFARE CHECK","WELFARE CHECK","ALTA CARE/55 BASIN CREEK RD","",""
"11/30/2018","21:29","218CR0030819","ALARM - FIRE","ALARM - FIRE","3136 BUSCH LUCKY YOU CASINO","",""
"11/30/2018","21:34","218CR0030820","BUSINESS CHECK","BUSINESS CHECK","916 E FRONT STREET","",""
"11/30/2018","22:15","218CR0030821","SUSPICIOUS ACTIVITY","SUSPICIOUS ACTIVITY","MARYLAND AVE AND 2ND ST","",""
"11/30/2018","22:39","218CR0030822","SUSPICIOUS ACTIVITY","POSSESS DRUG PARAPHERNALIA","GRANITE AND WYOMING","ARREST(s) MADE",""
"11/30/2018","22:39","218CR0030823","HIT AND RUN","HIT AND RUN, UNATTENDED VEHICL","2201 SILVER BOW BLVD","",""
"11/30/2018","22:52","218CR0030824","LOST OR STOLEN PROPERTY","THEFT LOST OR MISLAID PROPERTY","1000 GRIZZLY TRAIL","",""
"11/30/2018","23:19","218CR0030825","ALL OTHER","ALL OTHER","1824 GRAND AVE","",""
"11/30/2018","23:27","218CR0030826","DISORDERLY CONDUCT","DISORDERLY CONDUCT","501 S MONTANA ST","",""
"11/30/2018","23:40","218CR0030827","T/S","T/S","1900 BLK S MONTANA","",""
"11/30/2018","23:54","218CR0030828","BUSINESS CHECK","BUSINESS CHECK","58 W PARK ST","",""
"12/01/2018","00:10","218CR0030829","BUSINESS CHECK","BUSINESS CHECK","531 S MONTANA","",""
"12/01/2018","00:16","218CR0030830","ALL OTHER","ALL OTHER","53 W PARK","",""
"12/01/2018","00:25","218CR0030831","HIT AND RUN","FAILURE TO SHOW PROOF OF INS","115 E BROADWAY","",""
"12/01/2018","00:57","218CR0030832","MEDICAL - EMERGENCY","MEDICAL - EMERGENCY","2544 HARRISON","",""
"12/01/2018","00:58","218CR0030833","THEFT","THEFT","MAIN ST AND QUARTZ ST","",""
"12/01/2018","00:58","218CR0030834","STOLEN VEHICLE","STOLEN VEHICLE","MERCURY AND JACKSON ST","",""
"12/01/2018","01:12","218CR0030835","SUSPICIOUS ACTIVITY","SUSPICIOUS ACTIVITY","MOUNT CON PARKING","",""
"12/01/2018","03:16","218CR0030836","WANTED PERSON","OUT OF JURISDICTION - MISD","MERCURY AND JACKSON ST","",""
"12/01/2018","03:38","218CR0030837","SUSPICIOUS ACTIVITY","SUSPICIOUS ACTIVITY","2409 PINE ST","",""
"12/01/2018","03:41","218CR0030838","VANDALISM/CRIMINAL MISCHIEF","VANDALISM/CRIMINAL MISCHIEF","60 W GALENA ST","",""
"12/01/2018","04:03","218CR0030839","INFORMATION ONLY","INFORMATION ONLY","944 S WYOMING ST","",""
"12/01/2018","04:36","218CR0030840","SUSPICIOUS ACTIVITY","SUSPICIOUS ACTIVITY","400 S CLARK ST","",""
"12/01/2018","05:13","218CR0030841","ASSIST OTHER AGENCY","ASSIST OTHER AGENCY","190 E MM253","",""
"12/01/2018","05:15","218CR0030842","ASSIST OTHER AGENCY","ASSIST OTHER AGENCY","MM253 190E","",""
"12/01/2018","07:18","218CR0030843","JUVENILE RUNAWAY","JUVENILE RUNAWAY","************","",""
"12/01/2018","07:29","218CR0030844","FIRE- GAS ODOR","FIRE- GAS ODOR","725 1/2 S WYOMING ST","",""
"12/01/2018","07:30","218CR0030845","FIRE - STRUCTURE","FIRE - STRUCTURE","112 SILVER BOW HOMES","",""
"12/01/2018","08:02","218CR0030846","SUSPICIOUS ACTIVITY","SUSPICIOUS ACTIVITY","904 S UTAH AVE","",""
"12/01/2018","08:04","218CR0030847","UNWANTED PERSON","UNWANTED PERSON","************","",""
"12/01/2018","08:17","218CR0030848","ACCIDENT-MHP","ACCIDENT-MHP","I90 MM 227 E BND","",""
"12/01/2018","08:25","218CR0030849","PARKING COMPLAINT","PARKING COMPLAINT","1000 GRIZZLY TRAIL","",""
"12/01/2018","08:45","218CR0030850","SUICIDE ATTEMPT/THREAT","SUICIDE ATTEMPT/THREAT","************","",""
"12/01/2018","08:46","218CR0030851","BUSINESS CHECK","BUSINESS CHECK","58 W PARK","",""
"12/01/2018","08:50","218CR0030852","SUSPICIOUS ACTIVITY","SUSPICIOUS ACTIVITY","654 S MONTANA","",""
"12/01/2018","09:07","218CR0030853","CIVIL PAPER SERVICE","CIVIL PAPER SERVICE","2900 ELIZABETH WARREN","",""
"12/01/2018","09:16","218CR0030854","CIVIL PAPER SERVICE","CIVIL PAPER SERVICE","1427 SAMPSON","",""
"12/01/2018","09:23","218CR0030855","CIVIL PAPER SERVICE","CIVIL PAPER SERVICE","1910 ELM ST","",""
"12/01/2018","09:31","218CR0030856","CIVIL PAPER SERVICE","CIVIL PAPER SERVICE","2325 PINE ST","",""
"12/01/2018","09:36","218CR0030857","CIVIL PAPER SERVICE","CIVIL PAPER SERVICE","1007 OREGON","",""
"12/01/2018","09:42","218CR0030858","CIVIL PAPER SERVICE","CIVIL PAPER SERVICE","931 1/2 S UTAH","",""
"12/01/2018","09:50","218CR0030859","CIVIL PAPER SERVICE","CIVIL PAPER SERVICE","507 1/2 N WYOMING","",""
"12/01/2018","09:51","218CR0030860","ALARM-DURESS","ALARM-DURESS","************","",""
"12/01/2018","09:56","218CR0030861","CIVIL PAPER SERVICE","CIVIL PAPER SERVICE","518 N WYOMING","",""
"12/01/2018","09:59","218CR0030862","CIVIL PAPER SERVICE","CIVIL PAPER SERVICE","1129 ATLANTIC","",""
"12/01/2018","10:07","218CR0030863","CIVIL PAPER SERVICE","CIVIL PAPER SERVICE","2829 SILVER BOW BLVD","",""
"12/01/2018","10:14","218CR0030864","CIVIL PAPER SERVICE","CIVIL PAPER SERVICE","799 HORNET ST","",""
"12/01/2018","10:18","218CR0030865","CIVIL PAPER SERVICE","CIVIL PAPER SERVICE","838 ZARELDA","",""
"12/01/2018","10:25","218CR0030866","CIVIL PAPER SERVICE","CIVIL PAPER SERVICE","126 N IDAHO","",""
"12/01/2018","10:35","218CR0030867","CIVIL PAPER SERVICE","CIVIL PAPER SERVICE","1007 OREGON","",""
"12/01/2018","10:55","218CR0030868","LED BUSINESS","LED BUSINESS","BSB GUN RANGE","",""
"12/01/2018","11:03","218CR0030869","T/S","T/S","HARRISON AND ARGYLE","",""
"12/01/2018","11:08","218CR0030870","RESTRAINING ORDER VIOLATION","VIOLATION OF PROTECTION ORDER","1736 FARRAGUT","",""
"12/01/2018","11:12","218CR0030871","SUSPICIOUS ACTIVITY","SUSPICIOUS ACTIVITY","550 E MERCURY","",""
"12/01/2018","12:39","218CR0030872","HARASSMENT","PRIVACY IN COMMUNICATION","1825 GAYLORD","",""
"12/01/2018","12:55","218CR0030873","MEDICAL - EMERGENCY","MEDICAL - EMERGENCY","155 W QUARTZ","",""
"12/01/2018","13:01","218CR0030874","JUVENILE MISC","POSSESSION OF DANGEROUS DRUGS","1601 GAYLORD","ARREST(s) MADE",""
"12/01/2018","13:24","218CR0030875","TRAFFIC","TRAFFIC","403 W MERCURY","",""
"12/01/2018","13:30","218CR0030876","MEDICAL - EMERGENCY","MEDICAL - EMERGENCY","3600 EAST LAKE DR","",""
"12/01/2018","13:37","218CR0030877","THEFT","THEFT, ALL OTHERS","904 W PARK","",""
"12/01/2018","13:39","218CR0030878","DISTURBANCE","PFMA - MINOR INJ/PHYSICAL CONT","1021 1/2 E FRONT ST","ARREST(s) MADE",""
"12/01/2018","13:42","218CR0030879","SUSPICIOUS ACTIVITY","SUSPICIOUS ACTIVITY","122001 NISSLER RD","",""
"12/01/2018","13:52","218CR0030880","BUSINESS CHECK","BUSINESS CHECK","122000 W BROWNS GULCH RD","",""
"12/01/2018","13:59","218CR0030881","WELFARE CHECK","WELFARE CHECK","MAIN AND WOOLMAN","",""
"12/01/2018","14:18","218CR0030882","SUSPICIOUS ACTIVITY","SUSPICIOUS ACTIVITY","GARDEN AND SECOND ST","",""
"12/01/2018","14:36","218CR0030883","WANTED PERSON","WANTED PERSON","************","",""
"12/01/2018","15:06","218CR0030884","PARKING COMPLAINT","PARKING COMPLAINT","215 W BROADWAY","",""
"12/01/2018","15:22","218CR0030885","ABANDONED VEHICLE","ABANDONED VEHICLE","215 W BROADWAY","",""
"12/01/2018","16:09","218CR0030886","ATL","ATL","699 CENTENIAL","",""
"12/01/2018","16:21","218CR0030887","ALARM - BURGLARY","ALARM - BURGLARY","************","",""
"12/01/2018","16:34","218CR0030888","MEDICAL - EMERGENCY","MEDICAL - EMERGENCY","1901 HOLMES","",""
"12/01/2018","16:40","218CR0030889","ALARM - BURGLARY","ALARM - BURGLARY","************","",""
"12/01/2018","17:03","218CR0030890","RESTRAINING ORDER VIOLATION","VIOLATION OF PROTECTION ORDER","305 S OHIO","",""
"12/01/2018","17:42","218CR0030891","CIVIL PAPER SERVICE","CIVIL PAPER SERVICE","1910 ELM ST","",""
"12/01/2018","18:09","218CR0030892","MAN WITH A GUN","MAN WITH A GUN","************","",""
"12/01/2018","18:46","218CR0030893","ACCIDENT","ACCIDENT","","",""
"12/01/2018","18:57","218CR0030894","JUVENILE RUNAWAY","UNGOVERNABLE JUVENILE","390 HOLMES","",""
"12/01/2018","19:09","218CR0030895","T/S","T/S","AMHERST AND BANKS","",""
"12/01/2018","19:10","218CR0030896","ASSIST OTHER AGENCY","ASSIST OTHER AGENCY","I 15 MM 144 NB","",""
"12/01/2018","19:26","218CR0030897","T/S","NO LIABILITY INSURANCE IN EFF.","FRONT AND MAIN","",""
"12/01/2018","19:40","218CR0030898","VANDALISM/CRIMINAL MISCHIEF","VANDALISM/CRIMINAL MISCHIEF","1000 GRIZZLEY TRAIL","",""
"12/01/2018","19:41","218CR0030899","TRAFFIC HAZARD","TRAFFIC HAZARD","MONTANA AND PARK","",""
"12/01/2018","19:45","218CR0030900","HIT AND RUN","DUI - (REFUSAL)","300 BLK N WASHINGTON","ARREST(s) MADE",""
"12/01/2018","20:14","218CR0030901","ALARM-DURESS","ALARM-DURESS","************","",""
"12/01/2018","20:23","218CR0030902","THEFT","THEFT, SHOPLIFT","3901 HARRISON AVE","",""
"12/01/2018","20:31","218CR0030903","HARASSMENT","HARASSMENT","642 S WYOMING","",""
"12/01/2018","20:57","218CR0030904","T/S","T/S","HARRISON AND OTTAWA","",""
"12/01/2018","21:08","218CR0030905","MEDICAL - EMERGENCY","MEDICAL - EMERGENCY","1261 W PLATNIUM","",""
"12/01/2018","21:14","218CR0030906","TRAFFIC HAZARD","TRAFFIC HAZARD","940 W COPPER","",""
"12/01/2018","22:00","218CR0030907","SUSPICIOUS ACTIVITY","SUSPICIOUS ACTIVITY","415 VIRGINIA ST","",""
"12/01/2018","22:40","218CR0030908","T/S","SPEEDING","SHIELDS AND GARDEN","",""
"12/01/2018","22:49","218CR0030909","SUSPICIOUS ACTIVITY","SUSPICIOUS ACTIVITY","207 W PARK #2","",""
"12/01/2018","22:58","218CR0030910","MEDICAL - EMERGENCY","MEDICAL - EMERGENCY","104 PINTLER LANE","",""
"12/01/2018","23:02","218CR0030911","VANDALISM/CRIMINAL MISCHIEF","VANDALISM/CRIMINAL MISCHIEF","2720 ELM ST","",""
"12/01/2018","23:24","218CR0030912","SUSPICIOUS ACTIVITY","SUSPICIOUS ACTIVITY","106 COTTAGE LOOP","",""
"12/01/2018","23:31","218CR0030913","SUSPICIOUS ACTIVITY","SUSPICIOUS ACTIVITY","1407 HARRISON AVE","",""
"12/01/2018","23:41","218CR0030914","WELFARE CHECK","WELFARE CHECK","2219 SILVERBOW BLVD","",""
"12/01/2018","23:46","218CR0030915","UNWANTED PERSON","UNWANTED PERSON","************","",""
"12/02/2018","00:08","218CR0030916","T/S","T/S","1370 HARRISON","",""
"12/02/2018","00:10","218CR0030917","DISTURBANCE","DISTURBANCE","1409 SILVER BOW HOMES","",""
"12/02/2018","00:20","218CR0030918","ALARM - MEDICAL","ALARM - MEDICAL","************","",""
"12/02/2018","00:33","218CR0030919","FRAUD","FRAUD","1000 S EXCELSIOR AVE","",""
"12/02/2018","00:41","218CR0030920","T/S","DRIVE WHILE SUSP. OR REVOKED","MATTS DRIVE IN ALLEY","",""
"12/02/2018","00:53","218CR0030921","WELFARE CHECK","WELFARE CHECK","2 E GALENA","",""
"12/02/2018","00:57","218CR0030922","HIT AND RUN","HIT AND RUN, UNATTENDED VEHICL","412 1/2 N WASHINGTON","",""
"12/02/2018","01:02","218CR0030923","DISTURBANCE","DISTURBANCE","1409 SILVERBOW HOMES","",""
"12/02/2018","02:00","218CR0030924","UNWANTED PERSON","UNWANTED PERSON","************","",""
"12/02/2018","02:19","218CR0030925","MEDICAL - EMERGENCY","MEDICAL - EMERGENCY","PARK AND MAIN","",""
"12/02/2018","02:29","218CR0030926","SUSPICIOUS ACTIVITY","SUSPICIOUS ACTIVITY","JOSEPHINE ST AND HANCOCK AVE","",""
"12/02/2018","02:32","218CR0030927","MEDICAL - EMERGENCY","MEDICAL - EMERGENCY","2781 COLUSA ST","",""
"12/02/2018","03:15","218CR0030928","CITIZEN AID","CITIZEN AID","CLARK ST AND GALENA ST","",""
"12/02/2018","03:18","218CR0030929","SUSPICIOUS ACTIVITY","SUSPICIOUS ACTIVITY","1600 HOLMES AVE","",""
"12/02/2018","03:27","218CR0030930","ILLEGAL SHOOTING","ILLEGAL SHOOTING","2001 MASSACHUSETTS","",""
"12/02/2018","03:46","218CR0030931","DISTURBANCE","DISTURBANCE","HOLMES AND WARREN","",""
"12/02/2018","04:07","218CR0030932","UNKNOWN PROBLEM","UNKNOWN PROBLEM","3553 S WARREN AVE","",""
"12/02/2018","04:08","218CR0030933","UNWANTED PERSON","UNWANTED PERSON","************","",""
"12/02/2018","04:11","218CR0030934","SUSPICIOUS ACTIVITY","SUSPICIOUS ACTIVITY","1340 HARRISON AVE","",""
"12/02/2018","04:15","218CR0030935","T/S","SPEEDING","LONGFELLOW ST AND HARRISON AVE","",""
"12/02/2018","04:24","218CR0030936","PARKING COMPLAINT","DUI - (REFUSAL)","155 W QUARTZ","ARREST(s) MADE",""
"12/02/2018","06:22","218CR0030937","SUSPICIOUS ACTIVITY","SUSPICIOUS ACTIVITY","CHULA AND PARROTT","",""
"12/02/2018","07:17","218CR0030938","TRAFFIC HAZARD","TRAFFIC HAZARD","JANNEY RD // HWY 2","",""
"12/02/2018","08:01","218CR0030939","BUSINESS CHECK","BUSINESS CHECK","58 W PARK","",""
"12/02/2018","08:10","218CR0030940","SUSPICIOUS ACTIVITY","SUSPICIOUS ACTIVITY","PARK AND MAIN","",""
"12/02/2018","09:00","218CR0030941","MEDICAL - EMERGENCY","MEDICAL - EMERGENCY","2107 CORNELL","",""
"12/02/2018","09:46","218CR0030942","T/S","OPERATING WITHOUT CURRENT REGI","3640 HARRISON/MONTANA CLUB","",""
"12/02/2018","10:00","218CR0030943","SUSPICIOUS ACTIVITY","SUSPICIOUS ACTIVITY","BERNIES WAY","",""
"12/02/2018","10:23","218CR0030944","ANIMAL COMPLAINT","ANIMAL COMPLAINT","1418 BROWNING","",""
"12/02/2018","10:26","218CR0030945","CIVIL PAPER SERVICE","CIVIL PAPER SERVICE","1315 IOWA","",""
"12/02/2018","10:31","218CR0030946","ALARM - BURGLARY","ALARM - BURGLARY","************","",""
"12/02/2018","10:35","218CR0030947","VANDALISM/CRIMINAL MISCHIEF","VANDALISM/CRIMINAL MISCHIEF","700 BLK E FRONT","",""
"12/02/2018","10:54","218CR0030948","BURGLARY","CRIMINAL MISCHIEF","333 E BROADWAY","",""
"12/02/2018","11:26","218CR0030949","T/S","T/S @ MONTANA ST AND IRON","MONTANA ST AND IRON","",""
"12/02/2018","11:44","218CR0030950","T/S","T/S @ 2600 BLK GRAND","2600 BLK GRAND","",""
"12/02/2018","11:51","218CR0030951","T/S","NO LIABILITY INSURANCE IN EFF.","HOWARD ST AND GRAND AVE","",""
"12/02/2018","13:33","218CR0030952","FOUND PROPERTY","FOUND PROPERTY","************","",""
"12/02/2018","14:11","218CR0030953","UNKNOWN PROBLEM","UNKNOWN PROBLEM","3400 HILL #201","",""
"12/02/2018","14:24","218CR0030954","UNWANTED PERSON","UNWANTED PERSON","************","",""
"12/02/2018","14:42","218CR0030955","T/S","T/S @ GAYLORD AND COBBAN STS","GAYLORD AND COBBAN STS","",""
"12/02/2018","15:11","218CR0030956","SUSPICIOUS ACTIVITY","CRIMINAL CONTEMPT","2310 COBBAN","ARREST(s) MADE",""
"12/02/2018","15:27","218CR0030957","DISTURBANCE","DISTURBANCE","22 LAIRD","",""
"12/02/2018","15:35","218CR0030958","RESTRAINING ORDER VIOLATION","RESTRAINING ORDER VIOLATION","************","",""
"12/02/2018","15:47","218CR0030959","T/S","OPERATING WITHOUT CURRENT REGI","FRONT AND UTAH","",""
"12/02/2018","16:04","218CR0030960","T/S","OPERATING WITHOUT CURRENT REGI","HARRISON AND CIVIC CENTER RD","",""
"12/02/2018","16:08","218CR0030961","SUSPICIOUS ACTIVITY","SUSPICIOUS ACTIVITY","303 W DALY","",""
"12/02/2018","16:23","218CR0030962","PRIVACY IN COMMUNICATIONS","PRIVACY IN COMMUNICATIONS","************","",""
"12/02/2018","16:25","218CR0030963","THEFT","THEFT, SHOPLIFT","3901 HARRISON","ARREST(s) MADE",""
"12/02/2018","16:33","218CR0030964","VANDALISM/CRIMINAL MISCHIEF","VANDALISM/CRIMINAL MISCHIEF","445 CENTENIAL COMMUNITY HEALTH","",""
"12/02/2018","16:55","218CR0030965","HIT AND RUN","DUI DRUGS OR ALCOHOL","700 BLOCK OF SAMPSON","ARREST(s) MADE",""
"12/02/2018","17:09","218CR0030966","T/S","T/S","MISSOULA AVE AND N EXCELSIOR S","",""
"12/02/2018","17:24","218CR0030967","ATL","ATL","HARRISON AND HOLMES","",""
"12/02/2018","17:43","218CR0030968","JUVENILE MISC","JUVENILE MISC","************","",""
"12/02/2018","17:44","218CR0030969","WELFARE CHECK","WELFARE CHECK","665 1/2 S TRAVONIA","",""
"12/02/2018","17:57","218CR0030970","THEFT","POSSESSION OF DANGEROUS DRUGS","3901 HARRISON","ARREST(s) MADE",""
"12/02/2018","18:43","218CR0030971","MEDICAL - EMERGENCY","MEDICAL - EMERGENCY","501 W GRANITE #302","",""
"12/02/2018","19:57","218CR0030972","SUSPICIOUS ACTIVITY","ASSAULT, SIMPLE","20 S EMMETT","ARREST(s) MADE",""
"12/02/2018","19:58","218CR0030973","HARASSMENT","HARASSMENT","225 N ALASKA","",""
"12/02/2018","19:59","218CR0030974","HARASSMENT","HARASSMENT","1131 S MISSOURI APT D","",""
"12/02/2018","20:37","218CR0030975","DISTURBANCE","DISTURBANCE","2006 HANCOCK","",""
"12/02/2018","21:00","218CR0030976","MEDICAL - EMERGENCY","MEDICAL - EMERGENCY","1924 ELM ST","",""
"12/02/2018","21:01","218CR0030977","FRAUD","FORGERY/COUNTERFEIT","GALENA RICHEST HILL CASINO","ARREST(s) MADE",""
"12/02/2018","21:01","218CR0030978","TRAFFIC HAZARD","TRAFFIC HAZARD","1236 GRIZZLEY TRAIL","",""
"12/02/2018","21:48","218CR0030979","DISTURBANCE","DISTURBANCE","2006 HANCOCK","",""
"12/02/2018","22:19","218CR0030980","BUSINESS CHECK","BUSINESS CHECK","2711 HARRISON AVE","",""
"12/02/2018","22:33","218CR0030981","BUSINESS CHECK","BUSINESS CHECK","531 S MONTANA","",""
"12/02/2018","22:50","218CR0030982","SUSPICIOUS ACTIVITY","SUSPICIOUS ACTIVITY","508 ORPHAN GIRL","",""
"12/02/2018","23:30","218CR0030983","T/S","T/S","MARSHA AND FARRAGUT","",""
"12/02/2018","23:40","218CR0030984","T/S","T/S @ HARRISON AND GEORGE","HARRISON AND GEORGE","",""
"12/03/2018","00:58","218CR0030985","BUSINESS CHECK","BUSINESS CHECK","2711 HARRISON AVE","",""
"12/03/2018","01:09","218CR0030986","DISTURBANCE","DISTURBANCE","652 COLORADO","",""
"12/03/2018","02:13","218CR0030987","SUSPICIOUS ACTIVITY","SUSPICIOUS ACTIVITY","BROADWAY ST AND MAIN ST","",""
"12/03/2018","02:15","218CR0030988","SUSPICIOUS ACTIVITY","AGGRAVATED DUI","3501 AUGUSTA AVE","ARREST(s) MADE",""
"12/03/2018","02:58","218CR0030989","SUSPICIOUS ACTIVITY","BUY/POSSESS STOLEN PROPERTY","2340 CORNELL","ARREST(s) MADE",""
"12/03/2018","03:45","218CR0030990","SUSPICIOUS ACTIVITY","SUSPICIOUS ACTIVITY","1915 DEWEY","",""
"12/03/2018","06:57","218CR0030991","BUSINESS CHECK","BUSINESS CHECK","58 W PARK ST PARKING GARAGE","",""
"12/03/2018","07:11","218CR0030992","ALARM - BURGLARY","ALARM - BURGLARY","************","",""
"12/03/2018","07:44","218CR0030995","TRAFFIC","TRAFFIC","HOLMES AND ROWE","",""
 

BSB police report for November 30, 2018

"11/29/2018","00:52","218CR0030642","SUSPICIOUS ACTIVITY","SUSPICIOUS ACTIVITY","2500 BLK GRAND N ALLEY","",""
"11/29/2018","01:15","218CR0030643","PROWLER","PROWLER","2647 GOODWIN","",""
"11/29/2018","01:26","218CR0030644","T/S","POSSESSION OF DANGEROUS DRUGS","SHERMAN AND EVANS","ARREST(s) MADE",""
"11/29/2018","01:49","218CR0030645","WANTED PERSON","WANTED PERSON","************","",""
"11/29/2018","03:52","218CR0030646","CITIZEN AID","CITIZEN AID","220 N WYOMING ROOM 108","",""
"11/29/2018","04:00","218CR0030647","ALL OTHER","ALL OTHER","BSB DETENTION CENTER","",""
"11/29/2018","04:00","218CR0030648","UNKNOWN PROBLEM","UNKNOWN PROBLEM","1324 HARRISON AVE","",""
"11/29/2018","04:19","218CR0030649","MEDICAL - EMERGENCY","MEDICAL - EMERGENCY","1427 SAMPSON","",""
"11/29/2018","04:23","218CR0030650","SUSPICIOUS ACTIVITY","SUSPICIOUS ACTIVITY","2025 WALNUT","",""
"11/29/2018","05:19","218CR0030651","MEDICAL - EMERGENCY","MEDICAL - EMERGENCY","11 N LAKE DRIVE","",""
"11/29/2018","05:55","218CR0030652","PROWLER","PROWLER","106 COTTAGE LOOP","",""
"11/29/2018","06:58","218CR0030653","JUVENILE MISC","JUVENILE MISC","************","",""
"11/29/2018","07:35","218CR0030654","BUSINESS CHECK","BUSINESS CHECK","58 W PARK ST","",""
"11/29/2018","07:46","218CR0030655","CIVIL PAPER SERVICE","CIVIL PAPER SERVICE","2820 SILVER BOW","",""
"11/29/2018","07:55","218CR0030656","VANDALISM/CRIMINAL MISCHIEF","CRIMINAL MISCHIEF","831 WAUKESHA","",""
"11/29/2018","08:17","218CR0030657","CIVIL PAPER SERVICE","CIVIL PAPER SERVICE","2322 PINE","",""
"11/29/2018","08:39","218CR0030658","BURGLARY","BURGLARY, RESIDENCE","862 S MAIN ST","",""
"11/29/2018","08:46","218CR0030659","ALARM - BURGLARY","ALARM - BURGLARY","************","",""
"11/29/2018","08:54","218CR0030660","DETENTION BUSINESS","DETENTION BUSINESS","************","",""
"11/29/2018","09:07","218CR0030661","CIVIL PAPER SERVICE","CIVIL PAPER SERVICE","931 1/2 S UTAH","",""
"11/29/2018","09:13","218CR0030662","CIVIL PAPER SERVICE","CIVIL PAPER SERVICE","667 S COLORADO","",""
"11/29/2018","09:21","218CR0030663","CIVIL PAPER SERVICE","CIVIL PAPER SERVICE","207 NEVERSWEAT","",""
"11/29/2018","09:28","218CR0030664","CIVIL PAPER SERVICE","CIVIL PAPER SERVICE","410 S EXCELSIOR","",""
"11/29/2018","09:39","218CR0030665","CIVIL PAPER SERVICE","CIVIL PAPER SERVICE","654 S IDAHO","",""
"11/29/2018","09:40","218CR0030666","CIVIL PAPER SERVICE","CIVIL PAPER SERVICE","207 W PARK #14","",""
"11/29/2018","09:49","218CR0030668","DETENTION BUSINESS","DETENTION BUSINESS","************","",""
"11/29/2018","09:49","218CR0030667","CIVIL PAPER SERVICE","CIVIL PAPER SERVICE","213 S WASHINGTON","",""
"11/29/2018","10:00","218CR0030669","CIVIL PAPER SERVICE","CIVIL PAPER SERVICE","799 HORNET ST","",""
"11/29/2018","10:03","218CR0030670","ATL","ATL","","",""
"11/29/2018","10:09","218CR0030672","CIVIL PAPER SERVICE","CIVIL PAPER SERVICE","738 ZARELDA","",""
"11/29/2018","10:09","218CR0030671","T/S","T/S","3939 HARRISON AVE","",""
"11/29/2018","10:18","218CR0030673","CIVIL PAPER SERVICE","CIVIL PAPER SERVICE","1614 N MAIN","",""
"11/29/2018","10:19","218CR0030674","ACCIDENT","ACCIDENT","EXCELSIOR AND GRANITE","",""
"11/29/2018","10:24","218CR0030675","WELFARE CHECK","WELFARE CHECK","2015 WALNUT ST","",""
"11/29/2018","10:32","218CR0030676","WELFARE CHECK","WELFARE CHECK","1101 S ARIZONA","",""
"11/29/2018","10:35","218CR0030677","WANTED PERSON","WANTED PERSON","************","",""
"11/29/2018","11:29","218CR0030678","ATL","ATL","155 W GRANITE","",""
"11/29/2018","11:40","218CR0030679","HARASSMENT","HARASSMENT","1000 GRIZZLY TRAIL","",""
"11/29/2018","11:46","218CR0030680","MEDICAL - EMERGENCY","MEDICAL - EMERGENCY","522 N WYOMING","",""
"11/29/2018","12:18","218CR0030681","MEDICAL - EMERGENCY","MEDICAL - EMERGENCY","630 SAMPSON","",""
"11/29/2018","12:34","218CR0030682","WANTED PERSON","WANTED PERSON","************","",""
"11/29/2018","12:45","218CR0030683","UNWANTED PERSON","UNWANTED PERSON","************","",""
"11/29/2018","13:03","218CR0030684","CITIZEN AID","CITIZEN AID","3650 HARRISON WELLS FARGO","",""
"11/29/2018","13:17","218CR0030685","DISTURBANCE","DISTURBANCE","652 1/2 S COLORADO","",""
"11/29/2018","13:17","218CR0030686","DETENTION BUSINESS","DETENTION BUSINESS","************","",""
"11/29/2018","13:18","218CR0030687","THEFT","THEFT, ALL OTHERS","3900 JUPITER LANE C103","",""
"11/29/2018","13:25","218CR0030688","RESTRAINING ORDER VIOLATION","VIOLATION OF PROTECTION ORDER","305 OHIO ST","",""
"11/29/2018","13:31","218CR0030689","JUVENILE MISC","JUVENILE MISC","************","",""
"11/29/2018","13:38","218CR0030690","MEDICAL - EMERGENCY","MEDICAL - EMERGENCY","3901 HARRISON","",""
"11/29/2018","13:47","218CR0030691","DETENTION BUSINESS","DETENTION BUSINESS","************","",""
"11/29/2018","14:02","218CR0030692","SUSPICIOUS ACTIVITY","SUSPICIOUS ACTIVITY","GRANITE AND HAMILTON","",""
"11/29/2018","14:08","218CR0030693","MEDICAL - EMERGENCY","MEDICAL - EMERGENCY","226 W SILVER #22","",""
"11/29/2018","14:13","218CR0030694","ALARM-DURESS","ALARM-DURESS","************","",""
"11/29/2018","14:42","218CR0030695","PARKING COMPLAINT","PARKING COMPLAINT","831 WAUKESHA","",""
"11/29/2018","14:45","218CR0030696","FRAUD","FRAUD","1700 HARRISON AVE","",""
"11/29/2018","14:51","218CR0030697","UNWANTED PERSON","UNWANTED PERSON","************","",""
"11/29/2018","15:10","218CR0030698","CIVIL PAPER SERVICE","CIVIL PAPER SERVICE","155 W QUARTZ","",""
"11/29/2018","15:14","218CR0030699","FOUND PROPERTY","FOUND PROPERTY","************","",""
"11/29/2018","15:18","218CR0030700","ATL","ATL","2420 ELM ST","",""
"11/29/2018","15:33","218CR0030701","THEFT","THEFT, SHOPLIFT","310 W FRONT","",""
"11/29/2018","15:45","218CR0030702","CITIZEN AID","CITIZEN AID","CIVIC CENTER RD","",""
"11/29/2018","16:17","218CR0030703","T/S","DRIVE WHILE SUSP. OR REVOKED","MONTANA ST AND ALUMINUM ST","",""
"11/29/2018","16:27","218CR0030704","SUSPICIOUS ACTIVITY","SUSPICIOUS ACTIVITY","COLORADO ST AND MERCURY ST","",""
"11/29/2018","16:38","218CR0030705","T/S","DRIVE WHILE SUSP. OR REVOKED","IDAHO AND GRANITE","ARREST(s) MADE",""
"11/29/2018","16:40","218CR0030706","MEDICAL - EMERGENCY","MEDICAL - EMERGENCY","160 W GRANITE","",""
"11/29/2018","16:42","218CR0030707","ACCIDENT","ACCIDENT","CONTINENTAL AND OTTAWA","",""
"11/29/2018","16:47","218CR0030708","T/S","POSSESS DRUG PARAPHERNALIA","PLATINUM AND MONTANA","ARREST(s) MADE",""
"11/29/2018","17:26","218CR0030709","MEDICAL - EMERGENCY","MEDICAL - EMERGENCY","2103 ELM ST","",""
"11/29/2018","18:16","218CR0030710","ALARM - BURGLARY","ALARM - BURGLARY","************","",""
"11/29/2018","19:12","218CR0030711","UNKNOWN PROBLEM","UNKNOWN PROBLEM","1301 HARRISON AVE","",""
"11/29/2018","19:13","218CR0030712","ALL OTHER","PRIVACY IN COMMUNICATION","537 S COLORADO","",""
"11/29/2018","19:20","218CR0030713","T/S","T/S @ HARRISON AND B ST","HARRISON AND B ST","",""
"11/29/2018","19:28","218CR0030714","ACCIDENT","ACCIDENT","3901 HARRISON","",""
"11/29/2018","20:01","218CR0030715","JUVENILE MISC","JUVENILE MISC","************","",""
"11/29/2018","20:30","218CR0030716","INTIMIDATION","INTIMIDATION","202 NEVERSWEAT","",""
"11/29/2018","20:35","218CR0030717","WELFARE CHECK","WELFARE CHECK","1021 1/2 E FRONT ST","",""
"11/29/2018","20:58","218CR0030718","UNWANTED PERSON","UNWANTED PERSON","************","",""
"11/29/2018","21:05","218CR0030719","WANTED PERSON","WANTED PERSON","************","",""
"11/29/2018","22:24","218CR0030720","ASSIST OTHER AGENCY","ASSIST OTHER AGENCY","400 S CLARK ST","",""
"11/29/2018","22:33","218CR0030721","LED BUSINESS","LED BUSINESS","2015 WALNUT","",""
"11/29/2018","23:00","218CR0030722","SUSPICIOUS ACTIVITY","SUSPICIOUS ACTIVITY","2805 LEXINGTON PRO BUILD","",""
"11/29/2018","23:27","218CR0030723","ALL OTHER","ALL OTHER","ST JAMES EMERGENCY ROOM","",""
"11/29/2018","23:48","218CR0030724","SUSPICIOUS ACTIVITY","SUSPICIOUS ACTIVITY","1301 UTAH AVE","",""
"11/30/2018","00:02","218CR0030725","UNKNOWN PROBLEM","UNKNOWN PROBLEM","832 CALEDONIA","",""
"11/30/2018","00:06","218CR0030726","WELFARE CHECK","WELFARE CHECK","2500 MASSACHUSETTS AVE","",""
"11/30/2018","00:12","218CR0030727","WANTED PERSON","CRIMINAL CONTEMPT","2305 CONTINENTAL DR TOWN PUMP","ARREST(s) MADE",""
"11/30/2018","00:19","218CR0030728","ASSAULT","ASSAULT, SIMPLE","207 W PARK #14","ARREST(s) MADE",""
"11/30/2018","00:29","218CR0030729","SUSPICIOUS ACTIVITY","SUSPICIOUS ACTIVITY","GRAND AND MONROE","",""
"11/30/2018","00:51","218CR0030730","LED BUSINESS","LED BUSINESS","524 EDISON ST","",""
"11/30/2018","00:58","218CR0030731","MEDICAL - EMERGENCY","MEDICAL - EMERGENCY","155 W QUARTZ BSB DETENTION CEN","",""
"11/30/2018","01:40","218CR0030732","SUSPICIOUS ACTIVITY","SUSPICIOUS ACTIVITY","KMART PARKING LOT","",""
"11/30/2018","01:46","218CR0030733","SUSPICIOUS ACTIVITY","SUSPICIOUS ACTIVITY","1760 HARRISON SOUTHWEST MT FCU","",""
"11/30/2018","01:52","218CR0030734","T/S","NO LIABILITY INSURANCE IN EFF.","UTAH AND FIRST","",""
"11/30/2018","02:06","218CR0030735","BUSINESS CHECK","BUSINESS CHECK","1000 GRIZZLY TR TOWN PUMP","",""
"11/30/2018","02:08","218CR0030736","CRIMINAL TRESPASS","DUI DRUGS OR ALCOHOL","134 OROFINO GULCH RD","ARREST(s) MADE",""
"11/30/2018","02:10","218CR0030737","BUSINESS CHECK","BUSINESS CHECK","FLYING J 122000 BROWNS GLCH RD","",""
"11/30/2018","02:25","218CR0030738","SUSPICIOUS ACTIVITY","SUSPICIOUS ACTIVITY","HOLMES AVE AND WESTERN BLVD","",""
"11/30/2018","02:45","218CR0030739","T/S","AGGRAVATED DUI","ARGYLE AND FARRAGUT ST","ARREST(s) MADE",""
"11/30/2018","02:48","218CR0030740","SUSPICIOUS ACTIVITY","SUSPICIOUS ACTIVITY","50 W BROADWAY ST","",""
"11/30/2018","03:04","218CR0030741","WANTED PERSON","CRIMINAL CONTEMPT","531 S MONTANA","ARREST(s) MADE",""
"11/30/2018","03:29","218CR0030742","T/S","T/S @ 1700 BLK HOBSON","1700 BLK HOBSON","",""
"11/30/2018","04:11","218CR0030743","MEDICAL - EMERGENCY","MEDICAL - EMERGENCY","1243 W PORPHYRY ST","",""
"11/30/2018","05:19","218CR0030744","THEFT","THEFT","3901 HARRISON AVE","",""
"11/30/2018","05:34","218CR0030746","TRAFFIC","TRAFFIC","EXCELSIOR & HORNET","",""
"11/30/2018","06:24","218CR0030747","SUSPICIOUS ACTIVITY","SUSPICIOUS ACTIVITY","GOLD AND MONTANA","",""
 

Subcategories

Wednesday the 16th. Affiliate Marketing.
Copyright 2012

©